Helicity
91 58 37 69 42 6 96 48 -3 35 19 45 19 17 79 28 22 56 4 -36 9 -10 -11 -5 10 23 31 16 11 3 10 8 2 -0 -6 -9 2 9 27 52 55 54 46 41 37 34 27 26 31
13 41 20 73 3 -55 -37 33 22 13 20 13 19 -6 25 21 66 75 13 9 12 6 -11 -10 13 23 33 29 13 10 7 13 4 3 13 -0 17 27 52 55 61 61 62 59 46 39 49 37 49
45 24 58 54 18 -65 -61 -5 20 49 38 10 -11 -16 8 24 27 4 -3 25 23 4 -4 -5 19 17 26 29 28 16 15 15 16 15 25 23 38 55 61 67 73 72 73 66 61 44 34 39 28
8 -51 -92 -35 -79 -30 -27 4 132 72 70 35 -7 -3 -6 -5 -0 -10 40 39 34 9 5 10 28 30 25 23 26 31 22 17 18 12 31 45 56 64 74 85 85 76 70 56 48 51 45 37 27
8 -56 28 -18 -37 -1 88 144 106 73 2 21 30 27 -16 -21 45 74 45 43 55 14 -2 14 31 33 36 29 24 21 24 23 27 19 26 59 70 75 83 92 100 94 75 64 66 51 39 30 22
66 108 53 35 21 19 146 184 152 75 38 76 142 94 -19 35 96 39 43 42 40 35 -0 2 27 27 19 22 23 24 17 17 36 21 42 43 78 85 93 100 102 88 64 57 60 44 48 51 41
43 37 36 -4 33 45 55 73 51 61 -6 5 102 84 28 70 50 39 22 34 50 32 16 -14 -15 15 30 14 11 13 14 6 48 71 50 77 98 107 113 121 112 101 73 59 50 37 21 60 56
-10 10 -5 -51 -21 -37 87 58 35 46 -6 83 146 66 169 160 128 62 30 18 48 37 21 7 -7 -17 -16 -10 24 10 1 10 19 74 106 105 117 128 112 117 127 123 68 74 46 25 33 19 16
5 40 11 -0 -23 20 74 95 53 68 63 24 46 193 257 299 219 135 82 46 25 26 25 13 9 -4 -3 -16 -9 4 9 -1 62 60 105 119 114 126 134 108 93 69 20 45 29 26 28 26 47
-86 -52 61 58 54 32 59 138 162 149 119 72 222 306 319 345 296 212 107 58 37 61 40 21 13 11 6 -14 -26 -21 -37 -32 20 81 111 119 86 67 -10 117 76 34 26 -17 -8 -1 26 37 38
44 -46 6 83 35 -0 142 37 295 266 218 311 243 292 281 272 208 162 70 33 15 60 55 32 34 15 10 -2 -15 -17 -29 -22 14 40 92 57 7 30 11 52 73 68 21 31 -3 21 22 24 22
151 154 93 46 68 91 40 16 144 140 139 197 266 205 274 205 162 129 84 42 50 50 55 43 43 33 19 11 -18 -3 -10 -3 34 40 54 58 17 30 12 -5 32 62 59 27 -16 6 20 18 13
248 177 89 -23 27 62 115 -20 -6 177 273 203 172 160 171 171 153 118 84 65 81 66 47 53 59 51 26 21 2 -23 -15 -4 23 34 39 18 24 22 20 34 13 11 -51 -54 -18 -5 1 3 20
84 166 96 -7 47 94 131 105 84 233 277 242 190 189 179 164 167 125 130 178 155 92 93 66 76 84 65 34 24 3 -10 -6 -13 19 37 38 8 10 10 24 47 33 -20 -24 -4 1 -0 1 9
22 56 62 48 50 -32 35 63 216 328 245 278 203 172 190 225 228 217 196 202 219 152 153 122 87 102 86 56 26 34 16 10 -12 -22 19 37 17 4 28 22 58 39 -8 -5 -25 14 -5 15 14
-10 10 24 12 18 11 -24 98 245 357 355 261 223 180 184 149 237 246 236 237 180 133 225 167 114 121 95 67 31 31 22 9 -8 -31 22 35 27 13 26 22 41 52 29 -16 -18 10 25 27 37
30 25 14 17 -39 5 -4 43 234 338 421 319 279 266 242 185 160 166 226 194 192 174 186 184 172 166 137 73 51 41 33 19 -8 -26 -15 29 32 17 33 40 61 56 18 16 -26 -3 16 36 62
67 56 26 24 26 -35 -31 54 244 332 440 356 386 272 323 304 197 162 140 175 203 189 219 221 199 182 127 76 50 46 39 22 12 -14 -3 5 52 32 46 68 59 59 28 7 9 5 23 15 69
140 42 97 17 40 -39 -12 4 183 257 331 319 344 394 395 294 205 227 172 160 259 229 223 268 236 196 180 126 101 54 42 22 8 -3 14 38 67 41 42 51 60 66 30 7 -1 9 40 56 74
68 23 65 100 153 -2 25 126 66 230 341 365 363 357 418 413 283 287 246 249 275 309 234 232 240 226 193 165 123 69 52 8 14 16 30 46 62 47 31 31 41 55 35 26 21 19 7 18 40
42 40 -6 -7 57 85 -24 38 15 40 230 290 342 362 368 455 472 352 330 285 318 306 264 230 214 238 204 160 122 77 75 25 53 41 30 38 55 62 40 33 34 44 42 37 15 21 25 28 18
63 65 63 -13 39 -36 3 -19 -1 -4 66 167 251 336 246 377 460 421 361 393 357 307 268 223 224 224 185 185 144 129 107 85 46 42 39 46 52 57 50 33 31 38 43 42 32 19 24 33 36
-29 67 79 60 42 37 44 36 -6 64 85 49 121 70 143 278 474 560 502 469 394 348 286 226 206 204 158 160 155 138 108 76 72 70 68 70 47 24 61 45 35 42 52 49 39 29 27 24 21
54 96 81 92 47 44 26 28 -3 25 57 60 70 85 -15 139 397 504 495 493 398 355 313 295 221 174 161 153 142 146 133 102 82 63 70 63 41 35 20 33 39 42 51 41 41 32 23 23 20
122 173 78 56 68 49 92 72 33 51 54 -10 70 39 -2 39 334 429 550 534 442 421 343 289 250 189 155 152 138 126 133 118 104 74 81 94 70 65 51 32 28 53 59 49 40 43 26 23 20
34 88 108 61 46 33 75 65 60 97 73 113 62 2 56 85 233 353 465 577 524 450 394 365 307 220 203 148 133 128 121 106 91 88 75 98 118 91 64 46 25 17 53 48 35 40 30 21 15
38 102 64 81 106 89 64 45 -3 31 81 130 188 103 21 9 57 197 356 453 497 499 448 466 418 295 268 186 125 130 131 127 109 90 103 95 73 67 55 33 37 27 37 53 36 35 22 15 11
43 109 102 117 114 70 83 36 22 11 12 82 142 74 27 54 -50 125 276 378 438 500 424 478 506 435 327 233 146 131 154 166 138 130 107 88 70 59 45 33 7 -0 27 33 37 44 18 10 11
121 153 160 116 90 45 50 57 35 12 59 110 55 44 49 74 -20 28 199 317 406 468 416 482 508 460 351 314 206 159 167 162 173 145 123 102 73 80 65 49 38 29 35 40 49 28 15 16 10
51 161 173 129 85 130 89 61 -0 -22 2 108 69 98 105 -13 -16 2 152 269 423 477 473 491 499 437 391 348 283 236 208 178 153 149 130 141 106 88 94 82 71 55 50 56 65 63 24 28 18
Wind_Speed
40 40 41 38 49 47 41 44 42 51 41 38 51 46 53 27 40 43 66 61 62 63 63 60 59 55 54 48 44 40 40 39 36 34 25 11 13 13 17 27 27 31 36 39 40 38 37 36 34
42 50 47 40 56 62 56 44 63 57 63 64 45 45 28 35 43 66 63 65 63 63 63 61 57 55 53 50 45 43 42 44 41 43 42 22 17 16 24 27 28 33 35 35 32 32 30 31 30
38 46 43 27 42 57 58 52 55 62 54 47 44 38 38 45 63 67 66 66 61 61 63 61 56 54 51 50 47 46 46 45 44 45 37 32 25 22 29 30 30 30 28 27 31 33 27 30 28
46 45 32 38 40 54 54 52 54 48 45 46 49 36 49 55 59 60 68 67 59 62 62 59 57 54 50 49 48 47 46 45 45 45 42 33 29 33 32 27 25 25 20 21 25 31 29 24 36
35 31 15 21 45 50 47 53 47 43 33 42 43 44 46 52 57 65 65 64 63 61 60 57 54 53 51 48 46 45 45 45 44 44 45 36 33 33 27 22 22 20 13 22 25 22 14 44 37
23 27 7 32 29 40 44 42 43 41 43 40 42 46 42 53 58 61 60 62 60 58 57 56 55 50 48 48 45 45 44 44 42 45 44 45 35 21 20 17 15 10 12 16 17 9 7 33 41
22 21 19 20 22 46 41 44 45 47 48 42 49 42 45 54 58 60 60 57 56 57 52 48 49 51 46 44 43 43 43 43 37 35 43 39 26 22 21 17 10 6 7 12 8 11 20 25 46
17 20 18 15 20 40 47 43 46 48 43 47 52 40 50 53 55 54 53 53 51 52 50 48 40 39 42 44 42 41 41 44 44 36 26 26 26 22 18 17 15 7 3 6 4 6 25 42 38
20 29 13 38 38 42 46 45 47 41 49 44 31 45 51 54 52 50 47 44 44 43 43 43 40 36 36 36 37 38 41 39 33 33 25 24 25 24 18 19 19 7 15 4 16 40 33 39 42
24 26 26 37 36 44 44 47 48 42 43 40 47 50 55 55 52 49 46 44 42 41 39 39 37 39 39 37 37 35 33 31 5 28 27 26 21 18 42 24 12 16 19 48 10 14 18 31 42
23 24 32 38 39 39 42 48 43 45 43 47 50 55 55 53 48 45 43 42 42 42 39 39 40 39 38 37 37 28 29 31 26 24 26 25 36 36 39 28 16 10 11 24 12 8 10 20 53
21 33 31 18 34 43 46 37 46 36 37 46 51 56 54 49 43 39 37 38 38 38 38 39 39 36 36 34 34 32 31 28 24 25 25 26 31 30 32 29 23 14 15 43 9 16 31 44 55
26 23 35 50 50 50 40 31 23 40 47 49 53 52 50 46 42 37 36 35 35 34 37 38 35 36 37 36 36 35 31 29 25 25 23 25 30 32 29 30 16 24 47 46 44 18 16 51 55
21 22 13 45 15 44 33 35 8 47 52 52 53 50 50 47 45 40 37 34 36 34 35 35 34 31 32 30 30 29 29 28 28 24 26 23 27 30 32 35 35 37 40 46 28 35 42 49 52
39 27 28 29 24 39 17 23 38 50 51 52 50 49 49 46 44 43 40 37 36 35 33 35 33 27 26 26 26 24 24 25 30 22 29 27 26 27 28 32 31 34 38 45 37 30 35 37 48
31 32 27 34 31 32 29 34 41 48 46 45 45 45 41 40 41 40 40 37 36 35 31 34 33 26 22 22 21 20 23 25 30 33 33 35 30 25 27 28 28 30 36 39 37 31 27 32 37
25 22 27 33 27 35 31 31 38 42 41 39 39 40 38 37 40 37 37 35 34 33 32 31 31 31 27 21 18 17 20 21 27 31 33 40 25 24 24 26 27 26 32 32 34 27 29 30 34
28 31 31 26 28 30 34 34 35 37 36 34 33 35 34 35 37 36 35 33 33 33 30 29 30 30 31 23 18 14 17 19 20 30 43 37 19 21 24 23 24 25 27 27 28 27 23 25 32
35 33 30 17 31 33 31 35 33 39 34 34 34 32 31 31 33 32 31 29 29 31 30 28 31 28 27 25 21 18 18 19 17 22 13 14 17 20 21 22 22 25 27 25 25 25 25 22 30
28 32 24 20 27 26 24 30 23 32 38 39 39 40 35 25 31 32 31 33 28 30 31 29 32 30 28 24 22 14 18 20 21 20 18 12 14 16 20 21 21 24 25 20 23 25 23 23 23
21 25 41 35 22 30 27 35 31 9 28 34 32 36 37 32 27 33 31 31 27 29 32 35 31 30 27 25 19 9 12 10 12 10 13 12 9 15 17 21 18 26 27 25 24 24 23 22 19
15 17 14 30 43 42 43 46 46 49 30 13 15 24 39 31 28 28 34 29 30 29 26 28 28 28 26 25 22 16 14 13 11 12 9 12 10 8 16 23 21 31 29 31 30 26 25 24 24
47 16 14 18 44 45 47 38 45 45 38 42 39 14 26 11 21 26 29 32 29 27 25 28 29 28 24 27 26 21 17 18 7 7 9 11 13 13 9 10 22 41 35 37 37 34 28 29 27
46 16 34 42 39 46 35 35 39 41 37 25 37 48 21 13 10 21 25 26 27 26 24 26 29 30 26 26 25 24 22 18 12 9 11 10 14 14 9 12 22 42 42 40 41 38 36 30 29
18 15 45 43 41 43 33 35 33 49 47 50 46 19 25 23 9 19 28 29 28 25 23 22 26 31 30 28 25 26 22 16 15 15 10 10 11 6 15 2 16 31 42 40 41 38 37 37 33
31 21 32 46 52 58 41 38 37 48 47 44 44 19 31 25 23 21 31 29 29 28 25 21 25 26 30 31 29 25 20 12 11 15 10 10 12 17 12 11 8 4 20 38 38 36 36 37 39
33 32 33 43 43 37 42 41 41 38 22 34 43 29 39 37 15 22 35 34 29 28 28 27 25 26 28 35 33 27 20 16 16 13 8 5 6 10 15 5 2 2 4 21 31 40 32 39 44
36 29 41 38 46 48 42 44 41 38 25 41 45 44 59 55 47 19 29 30 28 29 25 25 28 28 30 29 31 27 23 19 16 12 10 3 4 7 7 9 9 9 6 7 12 37 39 45 44
30 28 33 31 33 41 49 45 34 36 49 48 47 49 51 44 41 13 28 30 26 26 28 25 27 25 21 20 24 20 18 18 17 14 12 8 1 2 6 5 2 6 6 6 10 15 26 39 48
38 30 27 35 37 36 36 41 33 33 42 41 51 55 50 46 40 16 27 25 27 28 27 26 24 25 22 18 17 16 11 11 14 15 11 5 5 4 3 7 9 12 16 13 16 37 9 28 55
Wind_Direction
117 105 147 149 128 121 158 146 156 143 147 149 153 145 123 176 140 129 121 122 116 119 120 115 111 104 100 86 73 64 62 56 44 29 355 269 189 186 168 140 137 130 116 105 96 96 90 85 84
120 119 114 134 105 93 114 146 114 122 112 104 106 141 178 153 127 111 114 120 117 117 121 117 109 104 101 92 78 70 68 68 56 53 112 165 180 183 155 145 137 121 109 104 103 97 95 88 91
123 114 122 165 129 86 94 124 85 105 110 122 136 135 138 128 101 114 117 117 112 115 120 119 109 103 100 96 85 79 78 77 70 82 128 140 158 166 148 139 129 120 115 111 97 90 97 93 95
115 93 21 38 36 87 98 106 91 77 68 69 81 37 93 116 116 113 116 117 112 117 120 118 112 107 101 99 94 87 84 80 87 79 108 141 154 145 141 141 132 124 125 112 100 95 99 105 92
39 29 337 358 41 101 65 83 79 69 147 83 87 81 81 106 104 110 113 115 116 119 123 119 115 113 107 100 95 90 85 85 99 93 103 138 148 145 151 152 133 123 129 106 102 98 119 80 100
184 177 250 13 4 45 66 63 54 41 68 61 68 81 81 105 108 114 112 115 116 115 117 120 121 112 105 105 95 96 88 89 120 103 119 114 139 178 174 168 150 152 131 116 107 92 102 114 105
313 333 331 328 351 65 66 71 61 67 82 70 92 74 94 110 116 114 113 112 112 118 115 111 113 118 105 101 93 92 93 86 148 157 125 129 158 171 165 165 176 188 150 126 126 106 118 132 98
305 299 267 308 360 71 94 86 81 81 82 85 96 90 113 114 113 110 107 108 111 116 115 116 102 98 102 107 96 92 87 102 112 148 184 176 165 167 186 165 145 235 221 156 180 310 114 115 119
244 174 310 168 73 80 92 69 110 57 86 105 140 111 115 115 112 108 104 103 108 111 111 111 109 99 96 93 91 86 92 82 169 148 205 192 176 155 183 155 141 264 322 298 139 106 123 124 123
331 344 212 185 162 103 78 84 91 69 99 87 79 96 112 116 118 115 117 118 120 120 117 116 110 111 109 101 96 82 65 50 359 210 209 192 207 223 40 145 159 305 327 14 338 154 146 137 126
237 218 176 177 176 168 81 118 77 68 118 104 104 116 119 122 122 122 125 129 130 129 125 128 123 120 115 112 107 69 65 47 334 302 248 313 30 95 83 117 161 222 290 127 330 219 196 155 111
215 226 219 220 219 88 132 160 112 129 117 112 106 118 120 125 126 125 127 130 129 131 131 132 130 123 122 116 116 97 82 30 339 331 324 326 9 333 335 26 145 170 158 93 216 190 157 129 104
178 225 203 160 153 126 75 180 204 109 92 106 111 114 124 131 132 129 131 130 128 129 134 138 133 133 134 129 129 126 106 78 343 334 326 319 358 352 329 333 5 326 55 34 23 358 359 106 81
269 182 234 160 243 105 60 103 186 103 100 105 115 119 127 132 136 135 139 134 137 133 136 138 139 134 131 125 124 124 119 106 99 309 284 318 347 359 348 355 357 3 27 35 358 33 55 101 86
152 207 193 214 211 158 81 285 116 119 116 112 121 127 132 131 131 142 140 140 140 141 136 142 140 133 130 129 125 123 119 114 128 70 286 289 313 335 332 353 336 350 38 47 23 19 39 48 76
186 185 222 187 200 198 221 135 112 124 122 124 127 134 135 142 144 143 142 137 142 141 138 142 142 137 130 126 119 113 127 126 139 144 285 268 286 327 322 342 340 359 24 32 22 31 22 35 51
185 218 248 223 180 196 206 167 139 134 131 131 136 143 142 142 153 150 146 143 139 142 138 142 144 143 140 130 116 102 112 124 140 151 169 247 327 353 333 339 332 334 9 2 15 11 33 36 41
185 167 173 226 231 263 231 208 146 149 146 143 141 150 149 148 154 151 148 144 143 142 137 136 141 142 144 132 121 93 102 113 117 148 224 265 3 14 349 341 326 314 339 342 353 13 6 32 43
187 180 121 300 263 227 212 228 158 167 159 162 161 157 157 159 160 152 149 141 136 142 141 138 139 140 137 135 127 117 117 113 100 124 48 31 15 17 357 327 332 312 313 346 360 349 23 32 52
159 173 149 168 115 148 215 221 193 172 185 179 177 177 168 148 157 156 153 151 141 145 149 146 147 143 143 140 134 103 121 125 123 121 105 73 2 359 344 331 320 320 307 349 340 6 359 41 38
128 172 267 324 133 186 244 252 261 199 192 185 182 183 173 170 160 161 159 159 146 149 151 154 152 147 145 145 135 50 91 84 105 71 109 91 41 354 1 324 334 293 292 301 322 349 356 358 360
150 155 69 204 317 251 310 257 307 323 31 119 177 179 188 184 174 170 169 162 159 155 148 152 150 151 146 142 141 132 126 125 118 126 107 122 110 11 330 315 310 285 288 287 295 327 326 343 352
294 24 41 20 317 313 309 339 320 333 344 355 357 149 178 192 185 180 170 167 158 147 148 152 152 150 144 147 146 144 136 142 75 91 115 135 146 143 345 330 303 274 284 283 285 293 313 314 328
309 333 317 318 322 306 337 344 339 351 356 352 255 318 148 152 159 174 169 160 160 150 145 144 157 158 152 150 149 149 148 140 125 101 133 129 146 148 135 327 301 276 276 278 280 285 291 307 313
327 323 304 301 310 311 334 337 336 324 333 307 260 196 5 8 107 129 161 164 164 157 151 147 152 162 161 158 156 155 153 143 140 139 107 113 134 98 152 32 303 288 275 278 280 284 290 288 298
307 316 304 299 300 303 320 322 334 331 302 336 330 346 10 59 136 132 158 161 163 163 157 153 156 156 164 167 166 161 155 146 146 146 118 105 130 159 148 147 150 161 299 283 284 286 289 291 285
300 295 308 306 311 315 317 326 329 343 357 354 337 337 341 325 89 165 175 167 162 164 167 165 160 160 162 171 171 168 164 159 158 155 130 70 62 123 149 123 124 177 156 298 288 280 293 287 277
284 301 305 300 298 301 311 317 327 347 358 309 327 310 290 267 249 149 169 168 166 171 165 163 166 165 167 168 172 172 172 171 169 163 164 130 37 20 29 133 147 165 177 168 298 284 284 276 277
285 288 311 309 303 302 305 310 323 328 307 301 299 320 288 240 222 93 161 166 161 163 168 166 169 170 169 167 173 174 176 178 181 184 183 187 244 337 346 359 12 161 199 215 279 295 290 278 269
288 276 293 303 299 304 310 310 320 323 305 306 290 309 299 293 201 107 131 123 140 155 162 170 172 175 178 176 174 183 187 185 186 185 191 212 264 225 237 317 310 311 297 284 284 284 281 267 255